Time,TemperatureF,DewpointF,PressureIn,WindDirection,WindDirectionDegrees,WindSpeedMPH,WindSpeedGustMPH,Humidity,HourlyPrecipIn,Conditions,Clouds,dailyrainin,SoftwareType,DateUTC
2013-07-28 00:00:00,67.0,65.0,-100.00,NE,55,0.0,2.0,92,0.00,,,-99.99,,2013-07-28 04:00:00,
2013-07-28 00:32:00,67.0,65.0,-100.00,NE,55,0.0,2.0,92,0.00,,,-99.99,,2013-07-28 04:32:00,
2013-07-28 00:43:00,67.0,65.0,-100.00,NE,55,0.0,2.0,92,0.00,,,-99.99,,2013-07-28 04:43:00,
2013-07-28 00:53:00,67.0,65.0,-100.00,NE,55,0.0,2.0,92,0.00,,,-99.99,,2013-07-28 04:53:00,
2013-07-28 01:00:00,67.0,65.0,-100.00,NE,55,0.0,0.0,93,0.00,,,-99.99,,2013-07-28 05:00:00,
2013-07-28 01:32:00,67.0,65.0,-100.00,NE,55,0.0,0.0,93,0.00,,,-99.99,,2013-07-28 05:32:00,
2013-07-28 01:43:00,67.0,65.0,-100.00,NE,55,0.0,0.0,93,0.00,,,-99.99,,2013-07-28 05:43:00,
2013-07-28 01:53:00,67.0,65.0,-100.00,NE,55,0.0,0.0,93,0.00,,,-99.99,,2013-07-28 05:53:00,
2013-07-28 02:00:00,67.0,66.0,-100.00,NNW,342,0.0,3.0,94,0.00,,,-99.99,,2013-07-28 06:00:00,
2013-07-28 02:32:00,67.0,66.0,-100.00,NNW,342,0.0,3.0,94,0.00,,,-99.99,,2013-07-28 06:32:00,
2013-07-28 02:43:00,67.0,66.0,-100.00,NNW,342,0.0,3.0,94,0.00,,,-99.99,,2013-07-28 06:43:00,
2013-07-28 02:53:00,67.0,66.0,-100.00,NNW,342,0.0,3.0,94,0.00,,,-99.99,,2013-07-28 06:53:00,
2013-07-28 03:00:00,67.0,65.0,-100.00,WNW,285,0.0,0.0,94,0.00,,,-99.99,,2013-07-28 07:00:00,
2013-07-28 03:32:00,67.0,65.0,-100.00,WNW,285,0.0,0.0,94,0.00,,,-99.99,,2013-07-28 07:32:00,
2013-07-28 03:43:00,67.0,65.0,-100.00,WNW,285,0.0,0.0,94,0.00,,,-99.99,,2013-07-28 07:43:00,
2013-07-28 03:53:00,67.0,65.0,-100.00,WNW,285,0.0,0.0,94,0.00,,,-99.99,,2013-07-28 07:53:00,
2013-07-28 04:00:00,66.0,65.0,-100.00,ESE,112,0.0,0.0,94,0.00,,,-99.99,,2013-07-28 08:00:00,
2013-07-28 04:33:00,66.0,65.0,-100.00,ESE,112,0.0,0.0,94,0.00,,,-99.99,,2013-07-28 08:33:00,
2013-07-28 04:43:00,66.0,65.0,-100.00,ESE,112,0.0,0.0,94,0.00,,,-99.99,,2013-07-28 08:43:00,
2013-07-28 04:53:00,66.0,65.0,-100.00,ESE,112,0.0,0.0,94,0.00,,,-99.99,,2013-07-28 08:53:00,
2013-07-28 05:00:00,66.0,64.0,-100.00,East,98,0.0,2.0,94,0.00,,,-99.99,,2013-07-28 09:00:00,
2013-07-28 05:32:00,66.0,64.0,-100.00,East,98,0.0,2.0,94,0.00,,,-99.99,,2013-07-28 09:32:00,
2013-07-28 05:43:00,66.0,64.0,-100.00,East,98,0.0,2.0,94,0.00,,,-99.99,,2013-07-28 09:43:00,
2013-07-28 05:53:00,66.0,64.0,-100.00,East,98,0.0,2.0,94,0.00,,,-99.99,,2013-07-28 09:53:00,
2013-07-28 06:00:00,66.0,64.0,-100.00,SSE,148,0.0,3.0,95,0.00,,,-99.99,,2013-07-28 10:00:00,
2013-07-28 06:33:00,66.0,64.0,-100.00,SSE,148,0.0,3.0,95,0.00,,,-99.99,,2013-07-28 10:33:00,
2013-07-28 06:42:00,66.0,64.0,-100.00,SSE,148,0.0,3.0,95,0.00,,,-99.99,,2013-07-28 10:42:00,
2013-07-28 06:53:00,66.0,64.0,-100.00,SSE,148,0.0,3.0,95,0.00,,,-99.99,,2013-07-28 10:53:00,
2013-07-28 07:00:00,69.0,67.0,-100.00,South,191,4.0,5.0,94,0.00,,,-99.99,,2013-07-28 11:00:00,
2013-07-28 07:33:00,69.0,67.0,-100.00,South,191,4.0,5.0,94,0.00,,,-99.99,,2013-07-28 11:33:00,
2013-07-28 07:43:00,69.0,67.0,-100.00,South,191,4.0,5.0,94,0.00,,,-99.99,,2013-07-28 11:43:00,
2013-07-28 07:54:00,69.0,67.0,-100.00,South,191,4.0,5.0,94,0.00,,,-99.99,,2013-07-28 11:54:00,
2013-07-28 08:00:00,72.0,68.0,-100.00,South,187,5.0,9.0,88,0.00,,,-99.99,,2013-07-28 12:00:00,
2013-07-28 08:33:00,72.0,68.0,-100.00,South,187,5.0,9.0,88,0.00,,,-99.99,,2013-07-28 12:33:00,
2013-07-28 08:43:00,72.0,68.0,-100.00,South,187,5.0,9.0,88,0.00,,,-99.99,,2013-07-28 12:43:00,
2013-07-28 08:53:00,72.0,68.0,-100.00,South,187,5.0,9.0,88,0.00,,,-99.99,,2013-07-28 12:53:00,
2013-07-28 09:00:00,75.0,68.0,-100.00,SE,132,5.0,11.0,79,0.00,,,-99.99,,2013-07-28 13:00:00,
2013-07-28 09:32:00,75.0,68.0,-100.00,SE,132,5.0,11.0,79,0.00,,,-99.99,,2013-07-28 13:32:00,
2013-07-28 09:43:00,75.0,68.0,-100.00,SE,132,5.0,11.0,79,0.00,,,-99.99,,2013-07-28 13:43:00,
2013-07-28 09:53:00,75.0,68.0,-100.00,SE,132,5.0,11.0,79,0.00,,,-99.99,,2013-07-28 13:53:00,
2013-07-28 10:00:00,74.0,69.0,-100.00,SE,137,9.0,14.0,82,0.00,,,-99.99,,2013-07-28 14:00:00,
2013-07-28 10:33:00,74.0,69.0,-100.00,SE,137,9.0,14.0,82,0.00,,,-99.99,,2013-07-28 14:33:00,
2013-07-28 10:43:00,74.0,69.0,-100.00,SE,137,9.0,14.0,82,0.00,,,-99.99,,2013-07-28 14:43:00,
2013-07-28 10:53:00,74.0,69.0,-100.00,SE,137,9.0,14.0,82,0.00,,,-99.99,,2013-07-28 14:53:00,
2013-07-28 11:00:00,75.0,68.0,-100.00,South,174,7.0,13.0,77,0.00,,,-99.99,,2013-07-28 15:00:00,
2013-07-28 11:33:00,75.0,68.0,-100.00,South,174,7.0,13.0,77,0.00,,,-99.99,,2013-07-28 15:33:00,
2013-07-28 11:43:00,75.0,68.0,-100.00,South,174,7.0,13.0,77,0.00,,,-99.99,,2013-07-28 15:43:00,
2013-07-28 11:53:00,75.0,68.0,-100.00,South,174,7.0,13.0,77,0.00,,,-99.99,,2013-07-28 15:53:00,
2013-07-28 12:00:00,74.0,68.0,-100.00,SSE,167,7.0,17.0,79,0.00,,,-99.99,,2013-07-28 16:00:00,
2013-07-28 12:33:00,74.0,68.0,-100.00,SSE,167,7.0,17.0,79,0.00,,,-99.99,,2013-07-28 16:33:00,
2013-07-28 12:43:00,74.0,68.0,-100.00,SSE,167,7.0,17.0,79,0.00,,,-99.99,,2013-07-28 16:43:00,
2013-07-28 12:53:00,74.0,68.0,-100.00,SSE,167,7.0,17.0,79,0.00,,,-99.99,,2013-07-28 16:53:00,
2013-07-28 13:00:00,74.0,68.0,-100.00,SE,145,9.0,18.0,82,0.00,,,-99.99,,2013-07-28 17:00:00,
2013-07-28 13:33:00,74.0,68.0,-100.00,SE,145,9.0,18.0,82,0.00,,,-99.99,,2013-07-28 17:33:00,
2013-07-28 13:43:00,74.0,68.0,-100.00,SE,145,9.0,18.0,82,0.00,,,-99.99,,2013-07-28 17:43:00,
2013-07-28 13:53:00,74.0,68.0,-100.00,SE,145,9.0,18.0,82,0.00,,,-99.99,,2013-07-28 17:53:00,
2013-07-28 14:00:00,74.0,68.0,-100.00,South,171,10.0,16.0,82,0.00,,,-99.99,,2013-07-28 18:00:00,
2013-07-28 14:33:00,74.0,68.0,-100.00,South,171,10.0,16.0,82,0.00,,,-99.99,,2013-07-28 18:33:00,
2013-07-28 14:43:00,74.0,68.0,-100.00,South,171,10.0,16.0,82,0.00,,,-99.99,,2013-07-28 18:43:00,
2013-07-28 14:52:00,74.0,68.0,-100.00,South,171,10.0,16.0,82,0.00,,,-99.99,,2013-07-28 18:52:00,
2013-07-28 15:00:00,76.0,68.0,-100.00,South,188,11.0,17.0,77,0.00,,,-99.99,,2013-07-28 19:00:00,
2013-07-28 15:33:00,76.0,68.0,-100.00,South,188,11.0,17.0,77,0.00,,,-99.99,,2013-07-28 19:33:00,
2013-07-28 15:43:00,76.0,68.0,-100.00,South,188,11.0,17.0,77,0.00,,,-99.99,,2013-07-28 19:43:00,
2013-07-28 15:53:00,76.0,68.0,-100.00,South,188,11.0,17.0,77,0.00,,,-99.99,,2013-07-28 19:53:00,
2013-07-28 16:00:00,77.0,68.0,-100.00,South,173,9.0,19.0,75,0.00,,,-99.99,,2013-07-28 20:00:00,
2013-07-28 16:33:00,77.0,68.0,-100.00,South,173,9.0,19.0,75,0.00,,,-99.99,,2013-07-28 20:33:00,
2013-07-28 16:43:00,77.0,68.0,-100.00,South,173,9.0,19.0,75,0.00,,,-99.99,,2013-07-28 20:43:00,
2013-07-28 16:53:00,77.0,68.0,-100.00,South,173,9.0,19.0,75,0.00,,,-99.99,,2013-07-28 20:53:00,
2013-07-28 17:00:00,76.0,69.0,-100.00,South,180,12.0,21.0,79,0.00,,,-99.99,,2013-07-28 21:00:00,
2013-07-28 17:33:00,76.0,69.0,-100.00,South,180,12.0,21.0,79,0.00,,,-99.99,,2013-07-28 21:33:00,
2013-07-28 17:44:00,76.0,69.0,-100.00,South,180,12.0,21.0,79,0.00,,,-99.99,,2013-07-28 21:44:00,
2013-07-28 17:52:00,76.0,69.0,-100.00,South,180,12.0,21.0,79,0.00,,,-99.99,,2013-07-28 21:52:00,
2013-07-28 18:00:00,76.0,68.0,-100.00,SSW,200,9.0,20.0,78,0.00,,,-99.99,,2013-07-28 22:00:00,
2013-07-28 18:32:00,76.0,68.0,-100.00,SSW,200,9.0,20.0,78,0.00,,,-99.99,,2013-07-28 22:32:00,
2013-07-28 18:43:00,76.0,68.0,-100.00,SSW,200,9.0,20.0,78,0.00,,,-99.99,,2013-07-28 22:43:00,
2013-07-28 18:52:00,76.0,68.0,-100.00,SSW,200,9.0,20.0,78,0.00,,,-99.99,,2013-07-28 22:52:00,
2013-07-28 19:00:00,75.0,68.0,-100.00,South,177,7.0,13.0,80,0.00,,,-99.99,,2013-07-28 23:00:00,
2013-07-28 19:33:00,75.0,68.0,-100.00,South,177,7.0,13.0,80,0.00,,,-99.99,,2013-07-28 23:33:00,
2013-07-28 19:43:00,75.0,68.0,-100.00,South,177,7.0,13.0,80,0.00,,,-99.99,,2013-07-28 23:43:00,
2013-07-28 19:53:00,75.0,68.0,-100.00,South,177,7.0,13.0,80,0.00,,,-99.99,,2013-07-28 23:53:00,
2013-07-28 20:00:00,74.0,69.0,-100.00,SW,215,3.0,11.0,86,0.00,,,-99.99,,2013-07-29 00:00:00,
2013-07-28 20:32:00,74.0,69.0,-100.00,SW,215,3.0,11.0,86,0.00,,,-99.99,,2013-07-29 00:32:00,
2013-07-28 20:43:00,74.0,69.0,-100.00,SW,215,3.0,11.0,86,0.00,,,-99.99,,2013-07-29 00:43:00,
2013-07-28 20:52:00,74.0,69.0,-100.00,SW,215,3.0,11.0,86,0.00,,,-99.99,,2013-07-29 00:52:00,
2013-07-28 21:00:00,73.0,70.0,-100.00,SW,215,2.0,13.0,90,0.01,,,-99.99,,2013-07-29 01:00:00,
2013-07-28 21:39:00,73.0,70.0,-100.00,SW,215,2.0,13.0,90,0.01,,,-99.99,,2013-07-29 01:39:00,
2013-07-28 21:47:00,73.0,70.0,-100.00,SW,215,2.0,13.0,90,0.01,,,-99.99,,2013-07-29 01:47:00,
2013-07-28 22:00:00,72.0,70.0,-100.00,SSW,198,5.0,9.0,91,0.02,,,-99.99,,2013-07-29 02:00:00,
2013-07-28 22:50:00,72.0,70.0,-100.00,SSW,198,5.0,9.0,91,0.02,,,-99.99,,2013-07-29 02:50:00,
2013-07-28 23:00:00,72.0,69.0,-100.00,SW,223,3.0,-999.0,92,-99.99,,,-99.99,,2013-07-29 03:00:00,
2013-07-28 23:37:00,72.0,69.0,-100.00,SW,223,3.0,-999.0,92,-99.99,,,-99.99,,2013-07-29 03:37:00,
2013-07-28 23:50:00,72.0,69.0,-100.00,SW,223,3.0,-999.0,92,-99.99,,,-99.99,,2013-07-29 03:50:00,
2013-07-28 23:58:00,72.0,69.0,-100.00,SW,223,3.0,-999.0,92,-99.99,,,-99.99,,2013-07-29 03:58:00,